HAZ8989 ZSHC-ZGGG

Flight info

Callsign HAZ8989
Flight time N/A
Altitude 36100
Route ELNEX5E ELNEX A599 PLT W19 OLPAB OLPAB9
Aircraft A346/H-SDE2E3FGHIJ3J4J5M1RWXY/LB1D1

Departure

Time N/A
Airport Hangzhou Xiaoshan International Airport (ZSHC)

Arrival

Time 2026-05-01 13:40
Airport Guangzhou Baiyun International Airport (ZGGG)
Time Latitude Longitude Altitude Speed Heading
2026-05-01 12:58 26.77703 116.03804 36075 ft 450 kts 231°
2026-05-01 12:58 26.75569 116.01244 36078 ft 450 kts 231°
2026-05-01 12:59 26.69167 115.93543 36079 ft 451 kts 231°
2026-05-01 12:59 26.62820 115.85857 36079 ft 450 kts 231°
2026-05-01 13:00 26.56447 115.78154 36085 ft 449 kts 231°
2026-05-01 13:01 26.50065 115.70454 36082 ft 450 kts 231°
2026-05-01 13:02 26.43667 115.62747 36076 ft 451 kts 231°
2026-05-01 13:07 25.96747 115.06664 36071 ft 449 kts 230°
2026-05-01 13:08 25.92477 115.01591 36075 ft 449 kts 230°
2026-05-01 13:08 25.88211 114.96535 36069 ft 448 kts 229°
2026-05-01 13:09 25.83514 114.91934 36070 ft 453 kts 220°
2026-05-01 13:09 25.78157 114.88272 36068 ft 459 kts 211°
2026-05-01 13:10 25.72184 114.85631 36073 ft 466 kts 201°
2026-05-01 13:10 25.65868 114.83924 36073 ft 467 kts 198°
2026-05-01 13:11 25.59525 114.82349 36076 ft 467 kts 197°
2026-05-01 13:11 25.53191 114.80774 36066 ft 467 kts 197°
2026-05-01 13:12 25.46844 114.79191 36076 ft 467 kts 197°
2026-05-01 13:12 25.40512 114.77613 36077 ft 467 kts 197°
2026-05-01 13:13 25.34173 114.76034 36077 ft 467 kts 197°
2026-05-01 13:13 25.27838 114.74457 36065 ft 467 kts 198°
2026-05-01 13:14 25.21492 114.72876 35665 ft 468 kts 197°
2026-05-01 13:14 25.18324 114.72088 35206 ft 465 kts 197°
2026-05-01 13:14 25.15173 114.71306 34771 ft 462 kts 197°
2026-05-01 13:14 25.12053 114.70532 34331 ft 459 kts 197°
2026-05-01 13:15 25.08932 114.69756 33893 ft 460 kts 197°
2026-05-01 13:15 25.05807 114.68980 33404 ft 461 kts 197°
2026-05-01 13:15 25.02674 114.68203 32922 ft 462 kts 197°
2026-05-01 13:15 24.99532 114.67424 32432 ft 463 kts 196°
2026-05-01 13:16 24.96373 114.66640 31982 ft 465 kts 196°
2026-05-01 13:16 24.93213 114.65857 31519 ft 467 kts 196°
2026-05-01 13:16 24.90039 114.65073 31080 ft 468 kts 196°
2026-05-01 13:17 24.80480 114.62720 29723 ft 471 kts 196°
2026-05-01 13:17 24.77284 114.61898 29217 ft 471 kts 198°
2026-05-01 13:18 24.70986 114.59723 28224 ft 471 kts 203°
2026-05-01 13:18 24.67940 114.58367 27746 ft 472 kts 206°
2026-05-01 13:18 24.64965 114.56834 27268 ft 471 kts 209°
2026-05-01 13:18 24.62087 114.55142 26812 ft 467 kts 212°
2026-05-01 13:19 24.59281 114.53372 26345 ft 463 kts 212°
2026-05-01 13:19 24.56492 114.51608 25907 ft 460 kts 212°
2026-05-01 13:19 24.50976 114.48119 24984 ft 454 kts 212°
2026-05-01 13:20 24.48241 114.46392 24531 ft 452 kts 212°
2026-05-01 13:20 24.45522 114.44677 24071 ft 450 kts 212°
2026-05-01 13:20 24.42847 114.42993 23620 ft 448 kts 212°
2026-05-01 13:21 24.37466 114.39614 22539 ft 442 kts 212°
2026-05-01 13:21 24.35673 114.38493 22180 ft 439 kts 212°
2026-05-01 13:21 24.32180 114.36309 21491 ft 433 kts 212°
2026-05-01 13:21 24.29576 114.34680 20975 ft 429 kts 212°
2026-05-01 13:22 24.26999 114.33066 20475 ft 425 kts 212°
2026-05-01 13:22 24.25268 114.31982 20139 ft 423 kts 212°
2026-05-01 13:22 24.22724 114.30387 19773 ft 419 kts 212°
2026-05-01 13:22 24.20196 114.28803 19692 ft 419 kts 212°
2026-05-01 13:23 24.17658 114.27214 19691 ft 420 kts 212°
2026-05-01 13:23 24.15120 114.25625 19696 ft 420 kts 212°
2026-05-01 13:23 24.12578 114.24035 19694 ft 420 kts 212°
2026-05-01 13:23 24.10047 114.22437 19693 ft 420 kts 213°
2026-05-01 13:24 24.07588 114.20718 19686 ft 418 kts 217°
2026-05-01 13:24 24.05225 114.18860 19688 ft 418 kts 219°
2026-05-01 13:24 24.02892 114.16966 19689 ft 418 kts 219°
2026-05-01 13:25 23.98227 114.13165 19690 ft 416 kts 219°
2026-05-01 13:25 23.95958 114.11320 19400 ft 409 kts 219°
2026-05-01 13:25 23.93675 114.09465 18747 ft 410 kts 219°
2026-05-01 13:25 23.91392 114.07611 18229 ft 407 kts 219°
2026-05-01 13:26 23.89138 114.05779 17680 ft 402 kts 219°
2026-05-01 13:26 23.86897 114.03958 17125 ft 399 kts 219°
2026-05-01 13:26 23.84682 114.02162 16571 ft 395 kts 219°
2026-05-01 13:26 23.82477 114.00377 16026 ft 392 kts 219°
2026-05-01 13:27 23.80468 113.98420 15450 ft 386 kts 234°
2026-05-01 13:27 23.79250 113.95847 14755 ft 380 kts 252°
2026-05-01 13:27 23.77582 113.90466 13539 ft 368 kts 252°
2026-05-01 13:28 23.75919 113.85342 12435 ft 332 kts 251°
2026-05-01 13:28 23.75151 113.83032 11997 ft 314 kts 251°
2026-05-01 13:29 23.73723 113.78794 11317 ft 281 kts 251°
2026-05-01 13:29 23.72399 113.74874 10202 ft 272 kts 250°
2026-05-01 13:30 23.69990 113.67566 8686 ft 233 kts 260°
2026-05-01 13:31 23.69791 113.64174 8068 ft 216 kts 266°
2026-05-01 13:31 23.69576 113.59267 6759 ft 216 kts 265°
2026-05-01 13:32 23.69390 113.55998 5994 ft 214 kts 264°
2026-05-01 13:33 23.69079 113.50862 5283 ft 229 kts 264°
2026-05-01 13:33 23.68846 113.47128 4923 ft 235 kts 263°
2026-05-01 13:34 23.68618 113.43545 4958 ft 237 kts 263°
2026-05-01 13:34 23.67949 113.40124 4893 ft 229 kts 229°
2026-05-01 13:35 23.65262 113.38406 4863 ft 228 kts 197°
2026-05-01 13:35 23.63729 113.37965 4609 ft 227 kts 193°
2026-05-01 13:35 23.60650 113.37172 4011 ft 227 kts 193°
2026-05-01 13:36 23.59110 113.36765 3690 ft 227 kts 193°
2026-05-01 13:36 23.57584 113.36355 3379 ft 225 kts 193°
2026-05-01 13:36 23.54640 113.35556 2899 ft 209 kts 192°
2026-05-01 13:37 23.53257 113.35180 2616 ft 201 kts 192°
2026-05-01 13:37 23.51920 113.34818 2328 ft 194 kts 192°
2026-05-01 13:37 23.50650 113.34474 2041 ft 181 kts 192°
2026-05-01 13:37 23.49464 113.34152 1816 ft 169 kts 192°
2026-05-01 13:38 23.47305 113.33570 1412 ft 156 kts 192°
2026-05-01 13:38 23.46256 113.33286 1226 ft 155 kts 192°
2026-05-01 13:38 23.45212 113.33004 1035 ft 154 kts 192°
2026-05-01 13:39 23.44172 113.32723 855 ft 154 kts 193°
2026-05-01 13:39 23.43135 113.32443 652 ft 153 kts 192°
2026-05-01 13:39 23.42105 113.32164 434 ft 152 kts 192°
2026-05-01 13:39 23.41084 113.31882 257 ft 152 kts 192°
2026-05-01 13:40 23.40059 113.31605 89 ft 151 kts 192°
2026-05-01 13:40 23.39166 113.31367 59 ft 98 kts 194°
2026-05-01 13:40 23.38757 113.31256 60 ft 34 kts 195°
2026-05-01 13:40 23.38546 113.31142 60 ft 31 kts 220°
2026-05-01 13:41 23.38467 113.31068 62 ft 13 kts 221°
2026-05-01 13:41 23.38421 113.31023 67 ft 2 kts 221°
2026-05-01 13:41 23.38400 113.31002 57 ft 6 kts 221°
2026-05-01 13:41 23.38359 113.30964 65 ft 10 kts 215°
2026-05-01 13:42 23.38285 113.30930 63 ft 13 kts 196°
2026-05-01 13:42 23.38183 113.30901 59 ft 17 kts 193°
2026-05-01 13:42 23.38063 113.30868 59 ft 13 kts 194°
2026-05-01 13:42 23.38024 113.30854 59 ft 5 kts 216°
2026-05-01 13:43 23.38014 113.30809 67 ft 3 kts 276°
2026-05-01 13:43 23.38019 113.30767 64 ft 9 kts 281°
2026-05-01 13:43 23.38032 113.30707 61 ft 15 kts 283°
2026-05-01 13:43 23.38052 113.30619 61 ft 8 kts 284°
2026-05-01 13:44 23.38071 113.30531 62 ft 13 kts 284°
2026-05-01 13:44 23.38120 113.30488 59 ft 11 kts 357°
2026-05-01 13:44 23.38208 113.30505 60 ft 14 kts 13°
2026-05-01 13:44 23.38318 113.30535 63 ft 18 kts 14°
2026-05-01 13:45 23.38451 113.30571 58 ft 21 kts 13°
2026-05-01 13:45 23.38606 113.30612 62 ft 24 kts 14°
2026-05-01 13:45 23.38775 113.30658 59 ft 26 kts 14°
2026-05-01 13:45 23.38948 113.30705 61 ft 23 kts 14°
2026-05-01 13:46 23.39091 113.30743 60 ft 18 kts 14°
2026-05-01 13:46 23.39215 113.30777 59 ft 20 kts 14°
2026-05-01 13:46 23.39341 113.30811 67 ft 17 kts 13°
2026-05-01 13:46 23.39432 113.30835 60 ft 14 kts 14°
2026-05-01 13:47 23.39543 113.30865 64 ft 18 kts 14°
2026-05-01 13:47 23.39635 113.30890 59 ft 0 kts 14°
2026-05-01 13:50 23.39642 113.30892 59 ft 3 kts 14°
2026-05-01 13:50 23.39672 113.30900 59 ft 6 kts 14°
2026-05-01 13:50 23.39713 113.30890 61 ft 7 kts 306°
2026-05-01 13:51 23.39735 113.30818 61 ft 12 kts 287°
2026-05-01 13:51 23.39776 113.30745 59 ft 12 kts 345°
2026-05-01 13:51 23.39840 113.30727 67 ft 10 kts 320°
2026-05-01 13:51 23.39875 113.30651 63 ft 13 kts 285°
2026-05-01 13:52 23.39891 113.30578 67 ft 8 kts 274°
2026-05-01 13:52 23.39884 113.30509 67 ft 11 kts 271°
2026-05-01 13:52 23.39886 113.30484 67 ft 3 kts 277°
2026-05-01 13:52 23.39891 113.30448 59 ft 5 kts 281°
2026-05-01 13:53 23.39892 113.30440 67 ft 0 kts 282°